Find Starlink 1873

NORAD ID: 47158 Int'l Des: 2020-088 Owner: SPXS Country: US Constellation: starlink operational
LEOCIRCULAR

現在のビュー

3D地球を読み込み中...

About Starlink 1873

Starlink 1873 (NORAD 47158) is a starlink constellation satellite (v1.0) launched Nov 25, 2020 by SPXS of US. It operates in LEO, CIRCULAR orbit with a mass of 260.00 kg.

Starlink 1873について

説明を読み込み中...

次回通過

Passes for default location (London). Set your location on the main map for personalized predictions.

高度履歴

Loading altitude history...

軌道要素

1 47158U 20088AN 26171.50003471 .00096665 00000-0 43740-3 0 9993
2 47158 53.0398 121.4177 0002191 166.4039 262.7546 15.83214557 5985
Epoch: Jun 20, 2026 • Age: 9 hours

現在のステータス

高度 327.4 km
速度 7.72 km/s
衛星直下点 52.95°N, 24.62°W
打ち上げ日 Nov 25, 2020
運用期間 5.5 years
タイプ internet

技術仕様

分類 Payload
質量 260.00 kg
乾燥質量 248.00 kg
総質量 260.00 kg
長さ 0.20 m
直径 2.80 m
スパン 9.00 m
形状 Box + pan
製造者 SPXS
バスタイプ Starlink
フェーズステータス In Orbit
所有者/国 SPXS/US

Most Searched